Location: Escondido Hill
(38.9119°N, 104.7815°W)
Time: 17:51:06
(UTC-06:00)

OTV 5 (USA 277) - Visible Passes

Search period start: 25 April 2019 00:00
Search period end: 05 May 2019 00:00
Orbit: 309 x 326 km, 54.5° (Epoch: 21 April)

Date Brightness Start Highest point End Pass type
(mag) Time Alt. Az. Time Alt. Az. Time Alt. Az.
25 Apr ? 21:25:54 10° WNW 21:27:30 14° NNW 21:29:07 10° N visible
27 Apr ? 20:20:25 10° W 20:22:33 20° NW 20:24:41 10° NNE visible
28 Apr ? 20:37:01 10° NW 20:37:33 10° NNW 20:38:04 10° NNW visible
